Regional Weather Roundup
Issued by NWS

Home | Current Version | Previous Version | Text Only | Print | Product List | Glossary On
Versions: 1 2 3 4 5 6 7 8 9 10 11 12 13 14 15 16 17 18 19 20 21 22 23 24 25 26 27 28 29 30 31 32 33 34 35 36 37 38 39 40 41 42 43 44 45 46 47 48 49 50
000
ASUS44 KLIX 241510
RWRLA
LOUISIANA WEATHER ROUNDUP
NATIONAL WEATHER SERVICE NEW ORLEANS LA
1000 AM CDT THU JUL 24 2014

NOTE: "FAIR" INDICATES FEW OR NO CLOUDS BELOW 12,000 FEET WITH NO
      SIGNIFICANT WEATHER AND/OR OBSTRUCTIONS TO VISIBILITY.
      SKY/WX - SKY CONDITION AND SIGNIFICANT WEATHER.
      TMP - AIR TEMPERATURE.    DP   - DEWPOINT TEMPERATURE.
      RH  - RELATIVE HUMIDITY.  PRES - PRESSURE.
      HX  - HEAT INDEX.         WCI  - WIND CHILL INDEX.

*  THESE STATIONS ARE NOT NWS OR FAA STATIONS AND ARE NOT UNDER
   NWS QUALITY CONTROL.

LAZ040-048-061>063-065-066-069-241600-
SOUTHEAST LOUISIANA

CITY           SKY/WX    TMP DP  RH WIND       PRES   REMARKS
N.O. AUDUBON   NOT AVBL
N.O. INTL ARPT PTSUNNY   82  73  74 W5        30.01S
N.O. LAKEFRONT MOSUNNY   83  75  77 NW6       30.02S
N.O. DOWNTOWN* FAIR      84  72  65 W3        30.02S
SLIDELL        MOSUNNY   82  74  76 CALM      30.02R
BATON ROUGE    MOSUNNY   84  73  69 NE5       30.02S
BOOTHVILLE     LGT RAIN  80  74  81 W8        30.03R
BELLE CHASSE   LGT RAIN  82  73  74 S6        30.02R HAZE
BOGALUSA*      FAIR      83  72  69 CALM      30.05R
GALLIANO*      NOT AVBL
NEW ROADS*     CLOUDY    77  74  90 CALM      30.03S
GONZALES*      PTSUNNY   82  75  79 NW3       30.02R
HAMMOND*       MOSUNNY   84  72  65 CALM      30.04R
HOUMA*         MOSUNNY   84  72  65 CALM      30.01S
PORT FOURCHON* MOSUNNY   77  73  88 SE6       30.03F HAZE

$$

LAZ041-044-053-054-241600-
SOUTHWEST LOUISIANA

CITY           SKY/WX    TMP DP  RH WIND       PRES   REMARKS
LAKE CHARLES   MOSUNNY   81  72  74 VRB5      30.02S
LAFAYETTE      SUNNY     83  75  77 NE5       30.02S
PATTERSON      MOSUNNY   84  75  74 CALM      30.05S
SALT POINT       N/A     86  78  77 CALM      30.00S HX  98
NEW IBERIA     SUNNY     85  75  72 CALM      30.02S
CHENAULT AIRPK MOSUNNY   79  72  78 N5        30.03S

$$

LAZ027-028-241600-
CENTRAL LOUISIANA

CITY           SKY/WX    TMP DP  RH WIND       PRES   REMARKS
FORT POLK      SUNNY     78  70  76 N8        30.04S
ALEXANDRIA INT SUNNY     79  70  74 CALM      30.02S
ALEXANDRIA     SUNNY     80  71  74 VRB5      30.03S

$$

LAZ001-002-241600-
NORTHWEST LOUISIANA

CITY           SKY/WX    TMP DP  RH WIND       PRES   REMARKS
SHREVEPORT     CLOUDY    74  69  85 N5        30.06S
BARKSDALE AFB  CLOUDY    73  69  85 N3        30.06F
DTN SHREVEPORT NOT AVBL

$$

LAZ014-016-241600-
NORTHEAST LOUISIANA

CITY           SKY/WX    TMP DP  RH WIND       PRES   REMARKS
MONROE         CLOUDY    75  71  87 CALM      30.06R HAZE
TALLULAH       CLOUDY    80  74  81 W3        30.03R

$$



USA.gov is the U.S. government's official web portal to all federal, state and local government web resources and services.